Regional Weather Roundup
Issued by NWS Sioux Falls, SD

Home | Current Version | Previous Version | Graphics & Text | Print | Product List | Glossary On
Versions: 1 2 3 4 5 6 7 8 9 10 11 12 13 14 15 16 17 18 19 20 21 22 23 24 25 26 27 28 29 30 31 32 33 34 35 36 37 38 39 40 41 42 43 44 45 46 47 48 49 50
374
ASUS43 KFSD 270810
RWRFSD

WEATHER ROUNDUP FOR SE SOUTH DAKOTA/SW MINNESOTA/NW IOWA
NATIONAL WEATHER SERVICE SIOUX FALLS SD
300 AM CDT FRI MAY 27 2016

NOTE: "FAIR" INDICATES FEW OR NO CLOUDS BELOW 12,000 FEET WITH NO
SIGNIFICANT WEATHER AND OR OBSTRUCTIONS TO VISIBILITY.


SDZ038>040-050-052>070-270900-
SOUTHEAST SOUTH DAKOTA

CITY           SKY/WX    TMP DP  RH WIND       PRES   REMARKS
BROOKINGS      MOCLDY    60  55  83 S8        29.79S
CHAMBERLAIN    CLOUDY    63  60  92 N8        29.77R
HURON          CLOUDY    57  54  89 N6        29.76S
MADISON        FAIR      59  59 100 S10       29.80F
MITCHELL       CLOUDY    62  58  86 SE9       29.78S
SIOUX FALLS    CLOUDY    58  54  86 S5        29.80F
WINNER         PTSUNNY   60  51  72 S5        29.75F
YANKTON        MOCLDY    61  55  82 CALM      29.78S
$$

MNZ071-072-080-081-089-090-097-098-270900-
SOUTHWEST MINNESOTA

CITY           SKY/WX    TMP DP  RH WIND       PRES   REMARKS
FAIRMONT       CLOUDY    63  55  77 CALM      29.82F
JACKSON        CLOUDY    61  55  82 S3        29.82F
LUVERNE        CLOUDY    55  52  88 CALM      29.81F
MARSHALL       PTCLDY    63  56  78 SW9       29.78F
MONTEVIDEO     CLOUDY    61  50  67 CALM      29.80S
PIPESTONE      PTCLDY    61  55  82 S6        29.81F
REDWOOD FALLS  CLOUDY    64  56  75 CALM      29.77F
TRACY          PTCLDY    63  58  84 SW9       29.79F
WINDOM         CLOUDY    63  57  82 CALM      29.80F
WORTHINGTON    MOCLDY    60  57  89 S3        29.82F
$$

IAZ001>003-012>014-020>022-031-032-NEZ013-014-SDZ071-270900-
NORTHWEST IOWA

CITY           SKY/WX    TMP DP  RH WIND       PRES   REMARKS
CHEROKEE       CLOUDY    58  58 100 CALM      29.81F
ESTHERVILLE    CLOUDY    58  57  97 E7        29.82F
LE MARS        CLOUDY    61  57  88 CALM      29.82S
ORANGE CITY    CLOUDY    61  55  82 CALM      29.81F
SHELDON        MOCLDY    59  59 100 CALM      29.80F
SIOUX CITY     CLOUDY    61  56  83 CALM      29.80S
SPENCER        CLOUDY    60  55  83 CALM      29.82S
STORM LAKE     CLOUDY    61  55  82 NE8       29.82S
$$

ABBREVIATIONS USED IN REMARKS
   TC - TEMPERATURE IN CELSIUS
  WCI - WIND CHILL INDEX
   HX - HEAT INDEX
  VSB - VISIBILITY





USA.gov is the U.S. government's official web portal to all federal, state and local government web resources and services.